Regional Weather Roundup
Issued by NWS

Home | Current Version | Previous Version | Graphics & Text | Print | Product List | Glossary On
Versions: 1 2 3 4 5 6 7 8 9 10 11 12 13 14 15 16 17 18 19 20 21 22 23 24 25 26 27 28 29 30 31 32 33 34 35 36 37 38 39 40 41 42 43 44 45 46 47 48 49 50
000
ASUS43 KLOT 241410
RWRIL

ILLINOIS REGIONAL WEATHER ROUNDUP
NATIONAL WEATHER SERVICE CHICAGO/ROMEOVILLE IL
900 AM CDT FRI OCT 24 2014

NOTE: "FAIR" INDICATES FEW OR NO CLOUDS BELOW 12,000 FEET WITH NO
SIGNIFICANT WEATHER AND/OR OBSTRUCTIONS TO VISIBILITY.

* THESE STATIONS ARE NOT UNDER NWS QUALITY CONTROL. THEY ALSO MAY NOT
  REPORT WEATHER SUCH AS PRECIPITATION OR FOG.

ILZ001-002-007-009-015-016-024-241500-
NORTHWEST ILLINOIS

CITY           SKY/WX    TMP DP  RH WIND       PRES   REMARKS
MOLINE         FOG       54  53  97 S6        30.07R VSB 3/4
STERLING*      CLOUDY    46  45  93 CALM      30.08S VSB 1/4
SAVANNA*       FOG       50  49  95 CALM      30.07R VSB 1/4
$$

ILZ003-004-008-010-011-017-018-241500-
NORTH CENTRAL ILLINOIS

CITY           SKY/WX    TMP DP  RH WIND       PRES   REMARKS
ROCKFORD       FOG       50  49  96 CALM      30.09R VSB 3/4
FREEPORT*      FOG       49  49  99 CALM      30.08S VSB 1/4
ROCHELLE*      CLOUDY    47  47  99 CALM      30.09R FOG
DE KALB*       CLOUDY    49  46  92 CALM      30.08R FOG
PERU*          FOG       46  45  98 CALM      30.09R VSB<1/4
$$

ILZ005-006-012>014-019>023-241500-
NORTHEAST ILLINOIS

CITY           SKY/WX    TMP DP  RH WIND       PRES   REMARKS
CHICAGO-OHARE  PTSUNNY   53  46  77 NW6       30.06S
CHICAGO-MIDWAY CLOUDY    55  47  74 SW6       30.07R
AURORA         CLOUDY    50  45  83 CALM      30.08R HAZE
LANSING*       CLOUDY    51  47  84 W5        30.08S
JOLIET*        PTSUNNY   51  47  84 CALM      30.08S
WAUKEGAN       CLOUDY    50  48  93 W6        30.06S FOG
DUPAGE AIRPORT CLOUDY    53  47  79 N3        30.06S
KANKAKEE*      CLOUDY    49  47  91 CALM      30.09S
WHEELING       MOSUNNY   54  48  80 W5        30.08S
MORRIS*        SUNNY     49  48  98 CALM      30.07R FOG
ROMEOVILLE*    PTSUNNY   52  46  82 CALM      30.07S
NORTHERLY ISL    N/A     55  46  71 SW5         N/A
$$

LMZ740>746-241500-
SOUTHERN LAKE MICHIGAN

STATION/POSITION SKY/WX   TEMP    WIND        PRES    VSBY  WAVE
                          AIR SEA DIR/SP/G                  HT/PER
                          (F)     (DEG/KT/KT) (MB)    (MI)  (FT/S)
SOUTHERN BUOY              53 54  270/  8/ 10 1018.1R         1
WAUKEGAN HARBOR            52     260/  5/  8   N/A
HARRISON CRIB              54     270/  4/  5   N/A
BURNHAM HARBOR             55     270/  5/  9   N/A
CALUMET HARBOR             53     220/  4/  6 1017.1R
MICHIGAN CITY              53     180/  7/  8   N/A
$$

ILZ025>027-034>036-040-047-049-050-058-095>099-241500-
WEST-CENTRAL ILLINOIS

CITY           SKY/WX    TMP DP  RH WIND       PRES   REMARKS
QUINCY         FOG       55  54  96 SW7       30.09R VSB<1/4
GALESBURG*     FOG       52  51  99 SE3       30.08S VSB<1/4
MACOMB*        FOG       51  51 100 CALM      30.11R VSB<1/4
JACKSONVILLE*  FOG       56  55  96 W3        30.11R VSB 1/4
PITTSFIELD*    FOG       56  55  95 CALM      30.12R VSB 1/4
$$

ILZ028>032-037-038-041>044-048-051>054-059>061-241500-
CENTRAL ILLINOIS

CITY           SKY/WX    TMP DP  RH WIND       PRES   REMARKS
PONTIAC        SUNNY     53  50  90 CALM      30.10R
BLOOMINGTON    SUNNY     53  49  86 SW3       30.09S
DECATUR        SUNNY     53  49  86 CALM      30.10S
PEORIA         FOG       52  50  93 CALM      30.10R VSB<1/4
LACON*         FOG       48  47  97 CALM      30.08R VSB<1/4
LINCOLN*       CLOUDY    52  49  89 CALM      30.08R
SPRINGFIELD    FOG       54  53  97 W5        30.11R VSB 1/4
TAYLORVILLE    FOG       52  52 100 CALM      30.09F VSB 1/4
$$

ILZ033-039-045-046-055>057-062-063-241500-
EAST-CENTRAL ILLINOIS

CITY           SKY/WX    TMP DP  RH WIND       PRES   REMARKS
CHAMPAIGN      MOSUNNY   52  49  89 SW8       30.10R
DANVILLE*      PTSUNNY   51  48  90 S3        30.07S
RANTOUL*       PTSUNNY   53  49  87 SW3       30.10R
MATTOON        CLOUDY    54  47  77 W5        30.10R
PARIS*         CLOUDY    53  49  88 SE3       30.11S
$$

ILZ079-100>102-241500-
SOUTHWEST ILLINOIS

CITY           SKY/WX    TMP DP  RH WIND       PRES   REMARKS
ALTON          CLOUDY    55  52  88 SW5       30.11S
BELLEVILLE     MOSUNNY   54  53  95 CALM      30.11R
CAHOKIA*       CLOUDY    56  52  86 SW7       30.12R
SPARTA*        CLOUDY    55  50  83 W5        30.12S
$$

ILZ064>066-069>071-074>076-080>082-084>086-088>090-092>094-241500-
SOUTH-CENTRAL ILLINOIS

CITY           SKY/WX    TMP DP  RH WIND       PRES   REMARKS
CARBONDALE     CLOUDY    55  48  77 SW3       30.13R
CAIRO*         CLOUDY    55  52  90 CALM      30.14S
EFFINGHAM*     PTSUNNY   53  46  77 CALM      30.11S
MARION         CLOUDY    55  50  82 SW6       30.14R
MT. VERNON     CLOUDY    52  46  82 CALM      30.13R
CENTRALIA*     CLOUDY    54  47  78 CALM      30.12R
SALEM*         CLOUDY    56  51  84 CALM      30.12R
METROPOLIS*    CLOUDY    49  49 100 CALM      30.13S FOG
$$

ILZ067-068-072-073-078-083-087-091-241500-
SOUTHEAST ILLINOIS

CITY           SKY/WX    TMP DP  RH WIND       PRES   REMARKS
LAWRENCEVILLE  CLOUDY    53  48  83 S5        30.13R
FLORA*         SUNNY     54  48  80 CALM      30.12S
FAIRFIELD*     PTSUNNY   53  48  82 CALM      30.11S
HARRISBURG*    PTSUNNY   50  48  95 CALM      30.14S
ROBINSON*      CLOUDY    55  49  80 S3        30.13R
CARMI*         MOSUNNY   55  50  83 SW3       30.12S
$$

ABBREVIATIONS USED IN REMARKS
   TC - TEMPERATURE IN CELSIUS
  WCI - WIND CHILL INDEX
   HX - HEAT INDEX
  VSB - VISIBILITY
$$




USA.gov is the U.S. government's official web portal to all federal, state and local government web resources and services.